This demonstration page uses our WeatherBlox Daily Observations layout. Learn more.

36.17497, -115.13722

Hourly Observations for January 18, 2018

Temp ( °F °C ) Dew Point ( °F °C ) Humidity (%) Winds ( mph kmh ) Pressure ( in mb ) Visibility ( mi km ) Precip ( " mm )
12:53 am 00:53 Clear 50 10 38 3.3 63 63 WNW 3 6 30.24 1024 10 16.0934 0 0
1:53 am 01:53 Clear 49 9.4 39 3.9 69 69 Calm 30.23 1024 10 16.0934 0 0
2:53 am 02:53 Clear 49 9.4 39 3.9 69 69 Calm 30.22 1023 10 16.0934 0 0
3:53 am 03:53 Clear 48 8.9 39 3.9 71 71 N 3 6 30.21 1023 10 16.0934 0 0
4:53 am 04:53 Clear 47 8.3 38 3.3 71 71 NW 5 7 30.21 1023 10 16.0934 0 0
5:53 am 05:53 Clear 47 8.3 38 3.3 71 71 WNW 3 6 30.23 1024 10 16.0934 0 0
6:53 am 06:53 Sunny 46 7.8 38 3.3 73 73 Calm 30.24 1024 10 16.0934 0 0
7:53 am 07:53 Sunny 48 8.9 38 3.3 68 68 Calm 30.27 1025 10 16.0934 0 0
8:53 am 08:53 Sunny 55 12.8 37 2.8 51 51 Calm 30.28 1025 10 16.0934 0 0
9:53 am 09:53 Sunny 56 13.3 38 3.3 51 51 SE 5 7 30.27 1025 10 16.0934 0 0
10:53 am 10:53 Sunny 59 15 36 2.2 42 42 S 5 7 30.24 1024 10 16.0934 0 0
11:53 am 11:53 Sunny 60 15.6 36 2.2 41 41 SE 7 11 30.19 1022 10 16.0934 0 0
12:53 pm 12:53 Sunny 62 16.7 35 1.7 37 37 SSE 6 9 30.14 1021 10 16.0934 0 0
1:53 pm 13:53 Sunny 63 17.2 35 1.7 35 35 SSE 7 11 30.12 1020 10 16.0934 0 0
2:53 pm 14:53 Sunny 63 17.2 34 1.1 34 34 ESE 3 6 30.11 1020 10 16.0934 0 0
3:53 pm 15:53 Sunny 63 17.2 35 1.7 35 35 ESE 6 9 30.09 1019 10 16.0934 0 0
4:53 pm 16:53 Clear 60 15.6 35 1.7 39 39 ESE 7 11 30.09 1019 10 16.0934 0 0
5:53 pm 17:53 Clear 60 15.6 36 2.2 41 41 ESE 3 6 30.08 1019 10 16.0934 0 0
6:53 pm 18:53 Clear 57 13.9 38 3.3 49 49 Calm 30.08 1019 10 16.0934 0 0
7:53 pm 19:53 Clear 56 13.3 37 2.8 49 49 Calm 30.07 1018 10 16.0934 0 0
8:53 pm 20:53 Clear 55 12.8 38 3.3 53 53 Calm 30.06 1018 10 16.0934 0 0
9:53 pm 21:53 Clear 53 11.7 40 4.4 61 61 Calm 30.06 1018 10 16.0934 0 0
10:53 pm 22:53 Clear 53 11.7 39 3.9 59 59 Calm 30.05 1018 10 16.0934 0 0
11:53 pm 23:53 Clear 51 10.6 39 3.9 64 64 Calm 30.03 1017 10 16.0934 0 0

Powered by AerisWeather